Wind_Speed
19 18 18 17 15 14 13 13 13 12 10 9 8 7 6 5 4 4 4 4 5 5 5 6 6 6 7 7 8 8 8 9 9 10 10 10 10 10 10 10 9 10 10 10 10 10 10 10 11 12 12 12 12 13 13 14 14 15 15 15 15 15 15 15 16 16 16 17 17
18 18 18 17 15 14 13 12 12 11 9 8 7 5 4 4 4 4 3 3 4 5 5 6 6 6 6 6 7 8 8 8 9 9 9 9 9 9 9 9 9 9 10 10 10 10 10 10 11 11 12 12 12 12 12 13 13 14 15 15 15 15 15 15 15 15 16 16 17
17 17 16 15 13 12 11 10 9 8 7 6 4 3 2 2 3 3 3 4 4 5 5 5 5 5 5 6 7 7 8 8 8 9 9 9 9 9 9 9 9 10 10 10 10 10 11 11 11 12 12 12 12 12 12 12 12 13 13 14 14 14 14 15 15 15 15 15 16
16 15 14 13 12 11 10 9 8 7 5 4 2 1 1 2 3 3 4 4 4 4 4 5 5 5 6 6 7 8 8 8 9 9 9 9 9 9 9 9 10 10 10 10 11 11 11 12 12 12 12 13 13 13 13 12 12 12 12 12 12 12 13 13 13 14 14 15 15
16 15 13 12 12 11 10 9 8 6 4 3 2 1 2 3 3 4 4 4 4 4 4 5 6 6 6 7 7 8 8 8 8 8 8 9 9 9 9 9 10 10 11 11 11 11 12 12 12 12 13 13 13 14 13 13 13 13 12 12 12 12 12 12 13 13 13 14 14
16 14 13 12 12 11 9 8 6 4 3 2 2 1 1 2 3 3 3 3 3 4 4 5 7 7 7 7 7 7 7 8 8 8 8 9 9 9 10 10 11 11 11 11 11 12 12 11 12 13 13 13 13 13 13 13 13 13 13 13 13 12 13 13 12 12 12 13 13
15 14 13 12 11 9 8 6 4 3 2 1 1 1 1 2 2 2 3 3 3 3 4 5 5 6 6 6 7 7 7 7 8 8 9 9 9 10 10 10 11 11 11 11 11 11 11 11 11 12 12 12 13 13 13 12 12 13 13 13 13 13 13 13 13 12 12 13 13
14 13 12 10 9 8 6 5 4 3 2 2 1 1 1 2 2 3 3 3 3 3 3 3 4 5 6 6 7 8 8 8 8 9 9 9 9 10 10 10 11 11 11 11 12 12 12 12 12 12 13 13 12 12 11 11 12 13 14 14 13 13 13 13 13 13 13 14 15
13 12 10 8 7 6 5 4 3 3 2 2 1 1 2 2 2 2 2 2 2 3 3 4 5 6 6 7 8 8 8 8 9 9 9 9 10 10 10 11 11 11 12 12 12 13 13 13 14 13 13 13 12 12 12 12 13 14 14 15 15 15 14 14 14 14 14 16 17
13 11 9 8 6 5 4 3 3 3 2 1 1 1 2 2 2 1 1 2 2 3 4 5 5 6 7 7 8 8 8 8 9 9 9 10 10 11 11 11 12 12 12 12 13 13 13 13 14 14 14 14 14 15 14 14 15 15 16 15 15 15 16 16 16 16 16 17 18
13 11 9 7 6 4 4 3 2 2 2 1 1 0 0 1 1 1 1 2 3 4 5 5 6 6 7 8 8 9 9 9 9 9 10 11 11 11 12 12 13 13 13 14 14 14 14 14 14 15 15 16 16 16 16 16 16 17 17 17 17 18 18 19 18 18 18 19 19
13 11 9 7 6 5 4 4 3 3 3 2 1 1 1 1 1 1 2 3 4 5 6 6 7 7 8 8 8 8 9 9 10 10 11 12 12 12 13 13 13 13 14 14 14 14 13 14 15 15 16 16 16 16 16 16 17 17 18 18 19 19 20 20 20 20 20 20 20
12 11 9 7 6 5 5 4 4 4 3 3 1 1 1 0 1 2 3 4 5 5 6 6 7 7 7 8 8 9 9 9 10 10 11 11 12 12 12 12 13 13 13 13 13 13 13 14 14 15 16 16 16 16 16 16 17 18 18 19 19 19 20 20 20 20 20 20 20
12 11 9 8 7 6 5 5 5 4 3 3 1 0 1 1 2 2 3 4 5 5 6 6 6 7 7 8 8 9 9 9 10 10 11 12 12 12 12 12 12 12 12 12 12 13 13 14 14 15 15 16 16 16 16 16 17 18 18 19 19 20 20 20 19 19 19 19 20
12 11 10 9 8 7 6 6 5 4 3 2 1 0 1 2 3 3 3 4 5 5 5 6 6 7 7 8 8 9 10 10 10 11 12 12 12 12 12 12 12 12 13 13 13 14 14 15 15 15 16 16 17 17 17 17 17 18 18 19 19 20 20 19 19 19 19 20 20
11 10 9 9 8 7 6 5 5 4 3 2 1 1 1 2 2 3 3 4 4 5 5 6 7 7 8 8 9 9 10 10 11 11 12 12 12 12 12 13 13 13 13 14 14 15 15 15 16 16 16 17 17 17 17 17 18 19 19 20 20 21 20 19 19 19 20 20 20
11 10 9 8 8 7 6 5 4 3 2 1 1 1 2 2 2 3 3 4 4 5 6 7 7 8 8 9 9 9 10 10 11 11 12 12 12 13 13 13 14 14 14 14 15 15 16 16 16 17 17 17 18 18 18 18 19 19 20 20 21 21 20 20 20 20 21 21 21
11 10 9 8 8 7 6 5 4 3 2 1 1 1 1 2 2 3 4 4 5 6 7 8 8 9 9 9 10 10 10 11 11 12 12 12 13 13 14 14 14 15 15 15 16 16 17 17 17 17 17 17 18 18 18 19 19 20 20 21 21 21 21 21 21 21 21 21 22
11 10 10 9 8 7 6 5 4 3 2 1 1 1 2 2 3 4 4 5 6 6 7 8 9 9 9 10 10 11 11 11 12 12 13 13 13 14 14 15 15 15 16 16 16 17 17 17 17 17 17 17 18 18 18 19 19 20 20 21 21 22 22 22 22 22 22 22 22
11 10 10 9 8 7 5 4 4 3 2 1 1 2 2 3 3 4 5 5 6 7 7 8 9 10 10 10 11 11 11 11 12 12 13 13 13 14 14 15 15 16 16 16 16 17 17 17 17 17 17 18 18 18 18 19 19 20 20 20 21 21 22 22 22 22 22 22 23
11 10 9 8 8 7 5 5 4 3 2 2 2 2 2 3 3 4 5 6 6 7 8 8 9 10 10 10 11 11 11 11 12 12 13 13 13 14 14 15 15 15 15 16 16 16 16 17 17 17 17 17 18 18 18 19 19 20 20 20 20 21 21 21 21 22 22 23 23
11 10 9 8 7 6 6 5 4 3 2 2 2 2 2 3 4 4 5 6 6 7 8 8 9 9 9 10 11 11 11 11 11 12 12 13 13 14 14 14 15 15 15 15 16 16 16 16 16 16 16 17 17 17 18 18 19 19 20 20 20 20 20 21 21 22 23 24 24
11 10 9 8 7 6 6 5 4 3 2 1 1 2 2 3 4 4 5 5 6 6 7 8 8 8 9 10 10 11 11 11 12 12 12 13 13 14 14 14 14 15 15 15 15 15 15 15 15 15 15 16 16 16 17 17 17 17 18 18 18 19 19 19 20 20 20 20 20
10 9 9 8 7 6 5 4 4 3 2 1 1 1 2 3 3 4 4 5 5 6 7 7 8 8 9 9 10 10 11 11 12 12 12 13 13 14 14 14 14 15 15 14 14 14 14 14 14 14 14 15 15 15 15 16 16 17 17 17 18 18 19 19 19 19 19 18 18
10 9 8 7 7 6 5 4 4 3 2 1 0 1 1 2 3 3 4 4 5 6 7 7 8 8 9 9 9 10 10 11 11 12 12 12 13 13 13 13 14 14 13 13 13 14 14 15 15 15 15 16 16 16 16 17 17 18 18 19 19 19 20 20 21 21 21 20 19
10 9 8 7 7 6 5 5 4 3 2 1 1 1 1 2 3 3 4 5 5 6 7 7 8 8 8 9 9 10 10 10 11 11 12 12 12 13 13 12 13 13 13 13 14 14 15 16 17 18 18 18 17 17 17 18 18 18 19 19 19 19 20 20 21 21 20 20 20
10 9 8 8 7 6 5 5 4 3 2 2 1 1 2 2 3 4 4 5 6 6 7 7 7 8 8 8 9 9 10 11 11 11 12 12 12 13 12 12 12 12 13 14 14 15 16 17 18 18 18 18 18 18 18 18 18 18 18 19 19 19 19 20 20 20 20 20 20
10 9 8 8 7 6 6 5 4 3 3 2 2 2 2 3 4 4 5 5 6 6 6 6 7 7 7 8 8 9 10 11 11 11 12 12 12 12 12 12 12 12 13 13 14 15 16 17 17 18 18 18 18 18 18 18 18 18 18 18 18 18 19 19 19 19 19 19 20
9 9 8 8 7 6 6 5 4 3 3 3 2 3 3 3 4 4 5 5 6 6 6 6 6 7 7 8 9 10 10 11 11 11 11 12 12 12 12 12 13 12 13 13 14 15 16 16 17 17 17 17 17 17 17 17 17 17 17 17 17 17 17 17 17 17 18 19 19
9 9 8 8 7 6 6 5 4 4 3 3 3 3 3 4 4 5 5 5 6 6 6 6 7 7 8 9 9 10 10 10 10 11 11 12 12 12 12 12 12 12 13 13 14 15 15 16 16 16 16 16 16 17 17 17 17 17 17 16 16 16 17 17 18 18 18 19 19
9 9 8 8 7 6 6 5 4 4 4 3 3 3 4 4 4 5 5 5 6 6 6 6 7 8 8 9 9 9 10 10 10 11 11 12 12 12 13 12 12 12 13 13 13 14 14 15 15 15 15 16 16 16 17 17 17 17 17 17 17 17 17 17 18 18 19 19 19
9 9 8 8 7 6 5 5 4 4 4 4 3 3 4 4 4 5 5 5 6 6 6 6 7 8 8 9 9 9 10 10 10 10 11 11 11 12 12 12 12 12 12 12 13 14 14 14 15 15 15 15 16 16 17 17 18 18 18 18 18 18 18 18 18 19 20 20 20
9 9 8 8 7 6 5 5 4 4 4 4 3 3 3 4 4 5 5 6 6 6 6 7 7 8 8 9 9 9 9 10 10 10 11 11 11 11 11 11 11 11 11 12 13 14 14 14 14 15 15 16 16 16 16 17 17 17 17 17 18 18 18 19 19 20 21 21 21
10 9 9 8 7 6 5 5 4 4 4 4 3 4 4 4 4 5 5 6 6 6 6 6 7 7 8 8 9 9 9 9 10 10 10 10 11 11 11 11 11 11 12 13 14 14 14 15 15 15 16 16 16 15 16 16 17 17 17 17 17 18 18 19 20 21 21 21 22
10 9 9 8 7 6 6 5 5 4 4 4 4 4 4 4 5 5 6 6 6 6 6 6 6 7 7 8 8 8 9 9 10 10 10 10 10 11 11 11 11 11 12 14 14 15 15 15 16 17 17 16 15 14 15 15 15 16 16 17 17 18 19 19 20 20 21 21 21
10 9 9 8 7 7 6 5 5 4 4 4 4 5 5 6 6 6 6 6 6 6 6 7 7 7 7 8 8 8 8 9 9 10 10 10 10 11 11 11 11 11 13 14 15 16 16 17 18 18 18 16 14 14 14 14 14 14 15 15 16 17 17 18 18 19 19 19 20
10 9 8 8 7 7 6 5 5 5 4 5 5 6 6 6 6 6 6 6 6 6 7 7 7 7 8 8 8 8 8 8 8 9 9 10 11 11 12 11 11 12 13 15 16 16 17 18 18 19 19 17 14 13 13 13 13 13 13 14 14 15 15 16 16 17 17 18 18
9 9 8 8 8 7 6 6 5 5 5 6 6 6 6 6 6 6 7 6 7 7 7 7 7 8 8 8 7 8 8 9 8 8 9 10 11 11 12 12 12 12 13 15 16 17 18 18 19 19 19 17 15 13 13 12 11 11 12 12 13 13 14 14 15 15 16 16 17
9 9 9 8 8 7 6 6 6 6 6 6 6 7 7 7 7 6 6 6 6 6 6 7 8 8 7 7 7 7 8 9 8 8 9 10 11 12 12 12 12 13 14 15 17 18 18 19 19 20 19 18 15 14 12 11 11 11 11 12 12 13 13 13 13 14 14 15 17
9 9 9 8 8 7 7 6 6 6 6 6 7 7 7 7 7 6 6 6 6 6 6 7 8 8 8 7 7 8 9 9 9 8 9 10 11 12 12 13 13 14 14 16 17 18 19 19 19 20 20 18 16 14 12 11 11 11 11 11 12 12 12 12 12 12 13 14 15
9 9 9 9 8 7 7 6 6 7 7 7 7 7 7 7 7 7 7 7 7 6 6 7 8 8 8 8 8 8 9 10 9 9 9 10 11 12 13 13 14 14 15 16 18 19 19 19 20 20 20 19 17 14 12 11 11 11 12 12 12 12 12 12 12 12 12 13 13
Wind_Direction
161 163 164 164 165 166 170 177 181 181 178 175 173 178 184 186 197 214 228 236 244 253 261 267 271 275 278 280 281 280 279 278 276 274 273 271 271 271 271 271 271 271 272 273 273 273 271 269 267 265 264 263 262 262 262 261 262 263 263 262 262 262 261 259 259 258 258 258 258
160 164 168 169 170 173 177 183 186 185 181 178 178 182 189 196 203 215 231 244 256 265 272 277 280 282 284 285 283 281 280 279 277 277 276 274 274 274 275 276 276 275 275 275 276 275 274 272 270 268 267 265 263 262 260 259 259 260 261 262 262 263 263 260 259 259 259 259 259
160 163 166 168 171 174 177 181 182 179 174 173 176 180 190 210 223 234 245 257 269 277 281 285 287 287 285 284 281 280 279 279 280 280 280 279 279 279 280 280 280 279 277 276 274 273 272 272 271 269 268 267 265 264 262 261 257 255 256 256 257 258 258 258 258 258 258 258 258
158 160 162 165 169 172 173 174 172 168 160 150 140 149 195 228 246 255 262 271 279 284 285 284 283 282 281 281 280 280 279 280 281 283 283 283 283 284 284 284 283 282 280 278 275 274 273 272 271 269 268 267 267 266 265 264 261 258 256 255 254 253 253 254 255 256 256 256 256
157 161 164 166 167 169 171 171 166 157 144 132 142 196 237 251 262 271 279 284 287 287 282 277 271 273 277 278 280 280 280 281 282 283 284 284 285 286 286 286 285 284 283 281 278 276 275 273 272 270 269 268 267 266 265 265 265 263 261 259 256 254 253 254 254 254 254 254 253
159 164 168 169 169 169 167 163 153 144 139 146 164 186 233 264 277 285 291 291 287 284 279 275 272 273 275 277 278 279 280 282 283 284 284 285 286 286 287 286 286 285 284 283 281 279 278 276 273 270 269 268 267 265 265 265 265 264 263 261 259 257 255 255 254 253 252 251 251
162 164 165 165 163 160 155 148 143 140 144 157 160 171 211 261 275 280 284 284 285 285 281 276 274 273 274 275 276 278 281 283 285 285 285 286 287 287 288 287 287 285 285 285 284 284 283 281 277 274 270 267 266 265 264 263 262 262 261 259 257 254 251 249 249 250 250 252 253
159 158 156 155 153 150 147 145 142 141 143 153 169 200 246 266 269 275 281 284 283 280 274 270 269 270 273 276 278 279 280 283 284 285 285 286 287 288 288 287 285 285 284 284 284 284 283 282 278 277 275 272 269 267 265 262 262 262 261 261 259 257 252 248 247 247 249 252 255
150 148 148 149 150 151 151 149 148 145 141 147 188 239 259 264 267 276 287 286 275 270 268 268 270 272 275 276 277 278 278 279 281 283 284 284 284 284 284 283 282 281 280 279 279 278 277 275 272 271 271 271 270 269 268 267 268 268 268 266 266 264 260 256 253 252 252 252 254
144 143 145 146 149 150 150 149 151 147 139 132 163 250 265 266 273 282 285 276 272 270 269 270 274 276 276 276 276 276 275 276 277 278 279 279 279 278 278 277 276 276 276 276 276 276 275 272 269 267 266 266 267 268 269 269 269 270 270 269 268 267 266 265 264 263 261 258 257
143 144 145 144 145 144 140 136 138 135 129 124 141 163 302 306 307 298 279 272 273 271 269 271 274 275 274 274 274 274 275 275 276 276 277 276 275 275 274 274 274 275 275 275 275 275 275 273 271 269 268 267 267 268 268 268 268 268 268 268 268 268 268 268 267 266 265 264 262
141 142 143 143 142 138 131 125 122 117 114 109 116 114 83 38 346 291 277 272 270 269 268 269 271 272 273 274 274 275 277 277 277 278 277 276 276 275 275 275 275 275 275 274 274 273 272 270 270 270 270 269 268 268 268 268 269 269 269 268 268 268 267 266 266 265 264 264 263
138 137 137 136 134 130 125 119 114 107 101 98 102 132 143 37 299 280 271 268 267 268 269 271 272 273 273 275 277 279 280 281 280 280 278 278 277 277 277 276 276 275 275 274 272 271 269 268 268 269 269 268 267 266 266 267 268 268 268 268 267 266 265 264 264 262 261 260 260
132 130 127 126 124 121 118 114 108 100 94 95 105 197 226 245 262 265 267 271 271 273 276 278 277 276 277 279 281 283 284 284 284 282 280 279 277 277 277 276 275 275 275 274 273 270 268 267 266 266 267 267 265 265 265 266 266 267 267 267 266 265 264 264 262 261 259 257 256
125 124 123 121 119 116 114 112 105 97 90 90 91 233 246 252 259 263 272 279 281 282 283 283 282 281 282 284 285 285 284 284 283 281 279 278 277 276 276 276 276 276 275 275 273 271 268 268 267 267 267 268 268 268 268 268 267 267 267 266 266 266 265 264 263 261 259 258 257
117 117 118 118 116 113 111 110 105 97 91 93 112 230 249 260 272 277 280 284 287 287 284 283 285 286 286 285 285 284 283 282 281 280 278 278 278 278 278 278 277 276 275 274 273 272 271 272 270 269 269 269 270 270 270 269 268 267 266 266 265 265 265 264 263 262 261 260 259
111 111 112 111 109 107 106 104 104 103 106 121 190 236 256 273 285 288 285 285 287 287 286 286 286 286 287 286 285 284 283 282 281 280 280 279 280 280 280 279 278 277 276 276 275 275 274 273 271 270 269 269 269 269 268 268 267 266 265 265 265 264 264 263 263 262 261 261 260
110 109 108 105 103 102 103 104 108 115 129 164 209 243 265 277 280 283 285 286 287 287 287 288 287 286 285 285 285 284 283 283 283 282 282 283 283 283 282 281 281 280 280 279 277 276 275 274 272 271 269 268 268 267 267 266 265 265 264 264 263 263 262 262 262 261 261 261 260
110 109 108 105 104 104 107 111 115 123 139 164 195 241 261 269 276 282 286 287 286 286 287 288 287 286 285 285 285 285 285 285 285 285 286 287 287 287 287 286 285 283 281 279 277 276 275 274 273 272 270 269 267 266 265 265 264 264 264 263 262 262 262 262 261 261 261 260 260
110 110 109 110 108 109 113 118 122 128 141 159 205 242 259 270 278 283 285 287 286 286 287 288 288 288 288 288 288 289 289 289 289 290 291 292 291 290 290 289 287 284 281 279 277 276 275 274 273 272 271 269 268 267 266 265 265 264 264 263 263 263 263 263 262 261 261 260 260
111 112 113 114 114 115 119 124 129 136 152 183 218 244 264 274 280 283 286 288 288 289 289 289 290 291 293 294 295 296 296 296 296 296 296 295 293 291 290 288 286 284 281 279 278 277 275 274 273 271 270 269 269 268 267 267 266 266 265 264 264 263 263 263 263 263 262 261 260
114 115 115 116 118 121 124 129 136 147 167 195 223 252 270 279 284 287 289 291 292 292 293 295 297 299 301 303 303 303 302 302 301 299 297 296 293 292 290 288 286 284 282 281 279 277 276 275 274 272 271 270 270 269 268 267 266 266 266 265 264 264 264 264 265 264 263 262 260
116 116 117 118 122 125 130 136 145 156 170 189 228 262 279 287 291 295 297 298 299 301 303 304 306 308 309 309 308 307 306 305 303 301 299 297 296 294 292 290 287 285 283 281 280 279 279 279 280 279 278 277 276 274 272 270 270 270 270 271 271 270 270 270 269 269 268 266 265
115 117 119 122 127 131 137 142 147 151 157 169 221 272 291 300 303 304 306 309 310 313 314 314 314 314 314 312 311 309 308 306 305 304 303 301 300 298 296 293 290 287 284 282 280 281 283 285 287 288 288 288 289 288 284 279 278 278 278 280 279 278 276 274 275 276 278 279 278
117 120 123 129 134 137 139 141 140 139 139 142 171 294 312 318 316 319 322 324 324 325 323 322 320 318 317 314 312 310 309 308 307 307 305 304 303 302 300 297 294 290 287 286 284 284 285 287 290 293 296 297 297 295 291 285 282 280 280 279 279 278 276 275 275 276 277 278 277
121 124 129 133 136 135 134 133 131 128 126 123 102 11 351 342 337 339 339 336 334 332 329 326 323 320 317 313 311 310 310 309 307 306 306 305 304 303 301 299 297 294 291 290 290 289 288 289 291 293 296 297 296 294 291 287 283 281 280 279 278 278 277 276 276 276 276 276 275
126 129 132 133 132 130 129 127 124 121 117 107 78 41 17 6 358 354 349 345 339 334 330 327 323 319 315 312 311 311 311 310 308 306 305 305 304 303 302 299 297 295 293 292 293 293 293 293 293 294 294 294 292 290 287 284 282 280 279 277 276 275 275 275 275 275 275 275 274
129 130 131 130 128 126 124 121 117 112 104 89 68 45 28 15 7 0 353 346 340 335 331 326 323 319 315 314 312 311 310 310 308 307 305 304 305 305 304 301 298 295 294 294 295 295 295 294 294 293 292 291 289 286 283 281 280 278 277 275 274 273 272 272 272 273 273 273 273
128 128 128 126 124 122 119 115 110 103 92 78 60 44 29 19 10 1 353 346 341 337 333 328 323 319 316 314 312 311 311 310 310 309 308 308 308 308 306 304 301 299 297 297 297 297 296 295 294 293 292 290 287 285 282 281 279 278 276 275 273 272 271 271 271 271 272 272 272
127 126 125 124 122 118 114 109 104 96 84 71 54 40 27 16 8 1 353 346 342 337 331 325 322 318 316 313 312 312 313 314 314 314 313 313 313 311 309 307 306 305 304 303 302 302 301 300 299 297 294 292 288 285 283 281 279 277 275 273 271 270 270 270 270 271 271 272 272
124 124 123 120 117 113 108 104 97 89 77 63 49 35 22 12 7 1 353 347 340 333 325 319 317 316 314 314 314 315 316 317 317 317 317 316 315 314 312 311 310 309 309 309 309 309 308 307 305 303 300 297 292 287 283 280 278 276 274 272 270 269 269 270 271 271 271 271 271
123 122 119 115 111 107 103 98 90 81 69 56 42 30 20 12 8 1 354 348 340 331 325 320 319 319 318 318 319 319 319 320 320 320 320 320 318 317 316 315 314 313 313 315 316 317 316 315 313 310 308 305 298 291 285 281 278 275 273 271 270 269 269 270 270 271 271 270 270
120 118 115 111 108 104 99 91 82 72 61 50 36 26 17 13 9 3 355 348 341 334 330 327 326 325 324 325 324 323 323 323 323 325 325 324 323 322 321 319 317 318 321 323 324 325 324 322 320 317 315 313 305 295 287 282 278 274 271 270 269 269 269 269 268 269 269 268 268
118 115 112 108 105 101 94 86 77 66 54 43 32 22 16 13 9 4 358 352 345 338 333 331 330 330 329 328 327 325 325 325 329 331 331 330 328 326 323 320 321 325 329 331 332 333 332 331 329 326 323 319 310 299 290 285 279 274 271 270 270 270 270 269 268 268 268 269 269
116 113 109 106 101 96 90 82 72 61 50 38 28 23 19 18 14 10 3 355 346 340 336 335 335 335 334 332 330 327 327 330 334 335 334 333 331 328 326 325 327 330 334 336 338 339 339 338 336 334 331 325 314 302 294 289 282 277 274 274 273 273 272 272 271 271 272 272 272
114 111 108 103 98 92 85 78 68 57 47 36 32 28 25 23 19 15 7 356 348 343 341 340 341 343 342 339 334 331 331 335 338 338 338 337 335 333 332 332 334 336 338 341 343 344 344 343 342 341 337 330 318 308 301 296 290 286 283 282 280 279 278 278 277 276 276 276 276
111 109 105 101 95 88 82 74 65 54 43 37 36 34 30 27 22 17 9 359 352 349 347 346 347 348 347 342 337 335 336 340 343 346 345 343 342 340 338 336 338 339 341 343 345 346 347 346 345 344 341 334 324 315 308 302 297 294 291 288 285 284 283 282 280 279 278 278 278
109 105 101 96 90 85 79 71 62 52 44 39 37 35 33 29 26 20 11 2 357 353 351 351 352 353 350 345 339 339 341 344 348 351 351 348 347 345 342 339 340 342 343 345 347 348 348 348 347 347 345 339 330 322 314 307 302 298 295 292 290 287 286 284 283 282 281 280 281
104 100 94 89 85 80 74 67 60 54 48 44 40 37 34 31 28 21 13 5 359 355 354 355 356 356 354 349 347 348 348 347 351 356 357 352 351 348 345 342 343 344 345 347 348 349 349 349 349 350 349 344 336 327 318 311 305 301 299 297 295 293 291 289 288 287 286 286 286
100 95 90 85 80 75 70 64 59 55 52 47 42 39 37 34 29 21 13 8 4 1 359 359 359 0 359 358 357 357 356 351 355 0 1 356 353 350 348 347 347 347 347 348 349 349 350 350 351 352 351 348 341 332 323 316 311 309 307 306 304 301 299 297 295 293 292 291 291
97 93 88 83 78 72 68 63 58 56 53 50 45 41 39 35 31 24 18 14 10 8 6 5 5 6 7 7 6 5 0 355 358 2 3 358 355 353 351 350 348 348 348 348 349 349 350 350 351 352 353 351 345 338 330 324 321 319 317 315 312 308 305 304 302 299 297 297 299
Height
744 745 747 748 749 751 752 753 754 755 756 757 757 757 757 759 760 761 762 762 762 762 762 762 762 762 763 763 764 765 765 766 766 766 766 766 765 765 764 764 763 763 763 762 762 762 762 762 762 761 761 760 760 760 760 760 760 760 760 760 759 759 759 759 758 758 758 758 758
743 745 746 747 749 750 752 753 754 754 755 755 755 755 756 757 759 760 760 761 761 761 761 761 761 761 762 762 763 764 765 765 765 765 765 764 764 763 763 762 762 762 761 761 761 761 761 761 760 760 760 759 759 759 759 759 759 759 759 759 758 758 758 758 757 757 758 758 757
743 744 746 747 749 750 752 753 754 754 754 753 754 754 755 757 757 758 759 759 759 759 759 759 760 760 761 762 763 763 764 764 764 764 764 763 762 762 762 761 761 760 760 760 760 760 760 759 759 759 759 758 758 758 758 757 758 758 757 757 757 757 757 757 757 757 757 757 757
742 744 745 747 749 751 752 753 753 753 752 752 753 754 755 756 757 757 757 758 758 758 758 758 759 760 761 762 762 763 763 763 763 762 762 762 761 761 760 760 760 759 759 759 759 759 758 758 758 758 757 757 757 757 757 757 756 756 756 756 756 756 756 756 756 756 756 756 756
742 743 745 747 749 751 752 752 752 751 751 752 752 753 754 755 756 756 756 756 757 757 757 758 758 759 760 761 762 762 762 762 762 761 761 760 760 759 759 759 758 758 758 758 758 758 757 757 757 757 757 757 756 756 756 756 755 755 755 755 755 755 755 754 754 754 754 754 754
741 743 746 748 750 750 751 750 750 750 750 751 752 753 754 754 754 755 755 755 756 756 757 757 758 759 760 760 761 761 761 761 760 760 760 759 758 758 758 757 757 757 757 757 757 757 757 757 756 756 756 756 755 755 755 755 755 754 754 754 753 753 753 753 753 753 753 753 753
742 744 747 748 749 749 748 748 748 749 750 751 752 752 753 753 753 754 754 755 756 756 757 757 758 759 759 760 760 760 760 759 759 759 758 758 757 757 757 756 756 756 756 756 756 756 756 756 755 755 755 754 754 754 754 754 754 753 753 752 752 752 752 752 752 752 752 752 752
742 745 747 747 747 747 747 747 748 749 750 750 751 751 752 752 752 753 754 755 756 757 757 757 758 759 759 759 759 759 758 758 757 757 757 756 756 755 755 755 755 755 755 755 755 755 755 755 754 754 754 753 753 753 752 752 752 752 752 751 751 751 751 751 751 751 751 751 751
743 745 745 746 746 746 746 746 747 748 749 749 750 750 751 751 752 753 754 755 756 756 757 757 758 758 758 758 757 757 757 757 756 756 755 755 754 754 754 754 754 754 754 754 754 754 754 754 753 753 753 752 752 752 752 752 751 751 750 750 750 749 749 749 749 749 749 749 749
742 743 744 744 744 745 745 746 747 747 748 749 749 750 751 751 752 753 754 755 755 756 757 757 757 757 757 757 756 756 756 755 754 754 753 753 753 753 753 753 753 753 752 753 753 752 752 752 752 752 751 751 751 751 750 750 750 750 749 749 749 748 748 748 748 748 748 748 747
741 742 742 743 743 744 745 746 746 747 747 748 749 750 751 752 752 753 754 755 755 756 756 756 756 756 756 755 755 755 754 754 753 753 752 752 752 752 752 752 752 751 751 751 751 751 751 751 750 750 750 750 749 749 749 749 749 748 748 748 748 747 747 747 747 747 747 746 746
739 740 741 742 743 744 745 745 746 747 748 749 749 750 751 752 753 753 754 754 755 755 755 755 755 755 754 754 754 754 753 753 752 752 752 751 751 751 751 750 750 750 750 750 750 749 749 749 748 748 748 748 748 748 747 747 747 747 747 747 746 746 746 746 746 746 746 745 745
738 739 740 742 742 743 744 745 746 747 748 749 750 750 751 752 753 753 753 754 754 754 754 754 754 754 754 753 753 753 752 752 751 751 751 750 750 750 749 749 749 748 748 748 748 748 747 747 747 747 746 746 746 746 746 746 746 745 745 745 745 745 744 744 744 744 744 744 743
737 739 740 741 742 743 744 745 746 747 748 749 750 750 751 752 752 752 753 753 753 754 754 753 753 753 753 753 752 752 751 751 750 750 749 749 749 748 748 747 747 747 747 746 746 746 746 745 745 745 745 744 744 744 744 744 744 744 743 743 743 743 742 742 742 742 742 742 742
737 738 739 741 742 743 744 745 747 748 749 750 750 751 752 752 752 752 752 753 753 753 753 753 753 752 752 751 751 750 750 749 749 748 748 748 747 747 747 746 746 745 745 745 745 744 744 744 743 743 743 743 742 742 742 742 742 742 742 742 741 741 741 741 741 740 740 740 739
737 738 739 741 742 743 744 745 747 748 749 750 751 751 752 752 752 752 752 752 752 752 752 752 752 751 751 750 750 749 749 748 748 747 747 747 746 746 745 745 744 744 744 743 743 743 743 742 742 742 742 741 741 741 741 741 741 741 740 740 740 740 739 739 739 739 738 738 737
737 739 740 741 742 743 744 746 747 748 750 750 751 751 751 752 752 752 752 752 752 752 751 751 751 750 750 749 749 748 748 747 747 747 746 745 745 744 744 743 743 742 742 742 742 742 741 741 741 741 740 740 740 740 739 739 739 739 739 738 738 738 738 737 737 737 737 736 736
738 739 740 741 742 744 745 746 747 748 749 750 750 751 751 751 752 752 752 751 751 751 751 751 750 750 749 749 748 748 747 747 746 746 745 744 744 743 742 742 742 741 741 741 741 740 740 740 740 739 739 739 739 738 738 738 738 737 737 737 737 736 736 736 735 735 735 734 734
738 739 740 742 743 744 745 746 747 748 749 749 750 750 751 751 751 751 751 751 751 751 750 750 750 749 749 748 747 747 746 746 745 744 744 743 742 742 742 741 741 740 740 740 739 739 739 739 739 738 738 738 737 737 737 737 736 736 735 735 735 734 734 734 733 733 732 732 732
738 739 740 742 743 744 745 746 747 748 749 749 750 751 751 751 751 751 751 750 750 750 749 749 749 748 748 747 747 746 745 745 744 743 742 742 742 741 741 740 740 739 739 739 738 738 738 738 738 737 737 737 736 736 735 735 734 734 733 733 733 732 732 732 731 731 731 730 730
738 739 740 742 743 744 745 746 747 748 749 750 750 750 750 750 750 750 750 749 749 749 749 748 748 747 747 746 746 745 744 744 743 742 742 741 741 740 740 739 739 738 738 738 738 737 737 737 737 736 736 735 735 734 734 733 733 732 732 731 731 730 730 730 729 729 728 728 727
738 739 741 742 743 744 745 747 747 748 749 749 750 750 750 750 749 749 749 748 748 748 748 747 747 747 746 745 745 744 743 743 742 742 741 740 740 739 739 739 738 738 737 737 737 737 736 736 735 735 735 734 733 733 732 732 731 731 730 729 729 728 728 728 727 727 727 726 725
739 740 741 742 743 745 746 747 748 748 749 749 749 749 749 749 748 748 748 748 747 747 747 747 746 746 745 744 744 743 743 742 742 741 741 740 739 739 738 738 737 737 737 736 736 736 735 735 734 734 733 733 732 732 731 730 730 729 728 728 727 727 726 726 726 725 724 724 723
740 741 742 743 744 745 746 747 747 748 748 748 748 748 748 748 748 747 747 747 747 746 746 745 745 745 744 744 743 743 742 742 741 741 740 740 739 738 738 737 737 736 736 735 735 735 734 734 733 733 732 732 731 731 730 729 728 728 727 726 726 725 725 724 724 723 722 722 722
740 741 743 744 745 746 746 747 747 747 747 747 747 747 747 747 747 747 746 746 746 745 745 744 744 744 744 743 743 742 742 742 741 740 740 739 739 738 737 737 736 736 735 734 734 734 734 733 733 732 732 731 730 730 729 728 727 727 726 725 725 724 723 723 722 722 721 721 720
741 742 743 744 745 745 746 746 746 746 747 747 746 746 746 746 746 745 745 745 744 744 744 744 744 744 743 743 743 742 742 742 741 740 739 739 738 737 737 737 736 735 734 734 733 733 733 732 732 732 731 731 730 729 728 727 726 726 725 724 723 723 722 721 721 720 719 719 718
741 742 743 744 744 745 745 745 745 746 746 746 746 745 745 745 744 744 744 744 744 743 744 744 744 744 743 743 743 742 742 741 741 740 739 738 737 737 736 736 735 734 734 733 733 732 732 732 731 731 730 730 729 728 727 726 725 724 724 723 722 722 721 720 719 718 718 717 717
741 742 742 743 744 744 744 745 745 745 745 745 745 744 744 744 743 743 743 743 743 743 743 743 744 744 743 743 743 742 742 741 740 740 739 738 737 736 736 735 734 734 733 732 732 732 731 731 730 730 730 729 728 727 726 725 724 723 722 721 721 720 719 718 717 717 716 716 715
741 742 742 743 743 744 744 744 744 744 744 744 744 743 743 743 743 743 743 743 743 743 743 743 744 744 743 743 743 742 742 741 740 739 738 737 737 736 735 734 734 733 732 732 731 731 730 730 729 729 728 728 727 726 725 724 722 722 721 720 719 718 718 717 716 716 715 714 713
740 741 742 742 743 743 743 743 743 743 743 743 743 743 743 742 742 742 742 742 743 743 743 744 744 744 743 743 742 742 741 740 740 739 738 737 736 735 735 734 733 732 732 731 731 730 729 729 728 727 727 727 726 725 724 722 721 720 719 718 718 717 716 716 715 714 713 713 712
740 741 741 742 742 742 742 742 742 742 742 742 742 742 742 742 742 742 742 742 742 743 743 743 744 743 743 743 742 742 741 740 739 738 737 737 736 735 734 733 732 732 731 731 730 729 728 728 727 726 726 725 724 723 722 721 720 719 718 717 716 715 715 714 713 712 712 711 711
740 740 741 741 742 742 742 742 742 742 742 742 742 742 742 742 742 742 742 742 742 743 743 743 743 743 743 742 742 741 741 740 739 738 737 736 736 735 734 733 732 732 731 730 729 728 727 727 726 725 724 723 722 722 721 719 718 717 716 715 714 714 713 712 712 711 710 709 709
740 740 741 741 741 741 741 741 741 742 742 742 742 742 742 742 742 742 742 742 742 742 743 743 743 743 743 742 742 741 740 740 739 738 737 736 735 734 733 733 732 731 730 730 729 728 727 726 725 724 723 722 721 720 719 717 717 716 714 713 712 712 712 711 710 709 708 707 707
739 740 740 740 740 741 741 741 741 741 742 742 742 742 742 741 741 741 742 742 742 742 743 743 743 743 743 742 742 741 740 739 739 738 737 736 735 734 733 732 732 731 730 729 728 727 726 725 724 723 722 720 719 718 717 716 715 714 713 712 711 710 710 709 708 707 706 706 705
739 739 740 740 740 740 740 741 741 741 742 742 742 742 741 741 741 741 742 742 742 742 743 743 743 743 742 742 742 741 740 739 738 737 737 736 735 734 733 732 731 730 730 729 727 726 725 724 723 722 720 719 718 717 715 714 713 712 711 710 709 709 708 707 706 705 705 704 703
739 739 739 739 739 740 740 741 741 741 742 742 741 741 741 741 741 741 742 742 742 742 743 743 743 743 742 742 741 741 740 739 738 737 737 736 735 734 733 732 731 730 729 728 727 726 725 723 722 721 719 718 717 715 714 713 712 711 710 709 708 707 706 706 705 704 703 702 701
738 738 739 739 739 740 740 741 741 741 742 741 741 741 741 741 741 742 742 742 742 743 743 743 743 743 742 742 741 741 740 739 738 737 737 736 735 734 733 732 731 730 729 728 727 725 724 723 722 720 719 717 716 714 713 712 711 710 709 708 707 706 705 704 703 702 701 700 699
738 738 738 739 739 740 740 741 741 742 742 741 741 741 741 741 741 742 742 742 743 743 743 743 743 743 742 742 741 740 740 739 738 737 737 736 735 734 733 732 731 730 728 727 726 725 723 722 721 720 718 717 715 714 712 711 710 709 708 707 706 705 704 702 702 700 699 698 697
738 738 738 739 739 740 740 741 741 742 742 741 741 741 741 741 742 742 742 743 743 743 743 743 743 743 742 742 741 740 740 739 738 737 737 736 735 734 733 732 731 729 728 727 726 724 723 722 721 719 718 716 715 713 712 711 709 708 707 706 705 703 702 701 700 699 698 697 696
738 738 739 739 740 740 741 741 742 742 742 742 742 742 742 742 742 743 743 743 744 744 744 743 743 743 742 742 741 740 740 739 738 737 737 736 735 734 733 732 730 729 728 727 725 724 722 721 720 719 717 716 714 713 711 710 709 707 706 705 704 702 701 700 699 698 697 696 694
738 738 739 739 740 741 741 742 742 742 742 742 742 742 742 742 743 743 743 744 744 744 744 744 743 743 742 742 741 740 740 739 738 737 737 736 735 734 733 732 730 729 728 726 725 723 722 721 720 718 717 716 714 712 711 710 708 707 706 704 703 702 700 699 698 697 696 694 693